Weather History for KLUK - May, 2014

Change the Weather History Date:

Monday, May 5, 2014

  Actual Average Record
Temperature  
Mean Temperature 58 °F -  
Max Temperature 73 °F 72 °F 92 °F (1949)
Min Temperature 44 °F 47 °F 29 °F (1957)
Degree Days  
Heating Degree Days 7    
Growing Degree Days 8 (Base 50)    
Moisture  
Dew Point 42 °F    
Average Humidity 61    
Maximum Humidity 82    
Minimum Humidity 47    
Precipitation  
Precipitation 0.00 in - - ()
Sea Level Pressure  
Sea Level Pressure 29.94 in    
Wind  
Wind Speed 5 mph (NE)    
Max Wind Speed 16 mph    
Max Gust Speed 17 mph    
Visibility 10 miles    
Events      
Averages and records for this station are not official NWS values.
T = Trace of Precipitation, MM = Missing Value Source: NWS Daily Summary

Daily Weather History Graph

Daily Weather History Graph

Search for Another Location

Airport or City:

Trip Planner

Search our weather history database for the weather conditions in past years. The results will help you decide how hot, cold, wet, or windy it might be!

Date:

Astronomy

May. 05, 2014 Rise Set
Actual Time 6:34 AM EDT 8:34 PM EDT
Civil Twilight 6:05 AM EDT 9:03 PM EDT
Nautical Twilight 5:29 AM EDT 9:39 PM EDT
Astronomical Twilight 4:51 AM EDT 10:18 PM EDT
Moon 11:53 AM EDT (5/5) 1:18 AM EDT (5/5)
Length of Visible Light 14h 58m
Length of Day
13h 59m
Waxing Crescent, 36% of the Moon is Illuminated
May 5
Waxing Crescent
May 6
First Quarter
May 14
Full
May 21
Last Quarter
May 28
New

Hourly Weather History & Observations

Time (EDT) Temp. Windchill Dew Point Humidity Pressure Visibility Wind Dir Wind Speed Gust Speed Precip Events Conditions
12:53 AM 50.0 °F - 32.0 °F 50% 30.04 in 10.0 mi NE 5.8 mph - N/A   Clear
1:53 AM 48.2 °F - 35.6 °F 62% 30.04 in 10.0 mi Calm Calm - N/A   Clear
2:53 AM 46.0 °F 44.8 °F 37.9 °F 73% 30.03 in 10.0 mi ESE 3.5 mph - N/A   Clear
3:53 AM 45.0 °F 43.5 °F 37.9 °F 76% 30.03 in 10.0 mi North 3.5 mph - N/A   Partly Cloudy
4:53 AM 44.1 °F - 39.0 °F 82% 30.01 in 10.0 mi Calm Calm - N/A   Clear
5:53 AM 45.0 °F - 39.0 °F 80% 30.01 in 10.0 mi Calm Calm - N/A   Clear
6:53 AM 46.9 °F - 37.9 °F 71% 30.01 in 10.0 mi NNE 3.5 mph - N/A   Clear
7:53 AM 48.9 °F - 41.0 °F 74% 30.01 in 10.0 mi NE 6.9 mph - N/A   Clear
8:53 AM 51.1 °F - 39.9 °F 66% 30.03 in 10.0 mi ENE 8.1 mph - N/A   Partly Cloudy
9:53 AM 54.0 °F - 39.9 °F 59% 29.98 in 10.0 mi ENE 5.8 mph - N/A   Clear
10:53 AM 57.9 °F - 41.0 °F 53% 29.95 in 10.0 mi East 11.5 mph 17.3 mph N/A   Clear
11:53 AM 59.0 °F - 39.9 °F 49% 29.96 in 10.0 mi East 6.9 mph - N/A   Scattered Clouds
12:53 PM 62.1 °F - 44.1 °F 52% 29.92 in 10.0 mi Variable 3.5 mph - N/A   Clear
1:53 PM 64.4 °F - 46.4 °F 52% 29.90 in 10.0 mi SSE 5.8 mph - N/A   Scattered Clouds
2:53 PM 68.0 °F - 46.9 °F 47% 29.88 in 10.0 mi Variable 3.5 mph - N/A   Clear
3:53 PM 71.1 °F - 50.0 °F 47% 29.85 in 10.0 mi Calm Calm - N/A   Clear
4:53 PM 72.0 °F - 51.1 °F 48% 29.83 in 10.0 mi NE 5.8 mph - N/A   Clear
5:53 PM 66.9 °F - 48.9 °F 52% 29.81 in 10.0 mi NNE 16.1 mph - N/A   Clear
6:53 PM 64.9 °F - 48.0 °F 54% 29.83 in 10.0 mi NE 15.0 mph - N/A   Clear
7:53 PM 62.1 °F - 46.9 °F 58% 29.84 in 10.0 mi NE 8.1 mph - N/A   Clear
8:53 PM 59.0 °F - 45.0 °F 60% 29.87 in 10.0 mi NE 8.1 mph - N/A   Clear
9:53 PM 57.0 °F - 45.0 °F 64% 29.88 in 10.0 mi NNE 5.8 mph - N/A   Clear
10:53 PM 55.9 °F - 43.0 °F 62% 29.89 in 10.0 mi NE 3.5 mph - N/A   Clear
11:53 PM 55.4 °F - 42.8 °F 63% 29.90 in 10.0 mi NE 4.6 mph - N/A   Clear